Weather History for KCPK - September, 2013

Change the Weather History Date:

Monday, September 16, 2013

  Actual Average (KORF) Record (KORF)
Temperature  
Mean Temperature 70 °F 72 °F  
Max Temperature 86 °F 79 °F 94 °F (1956)
Min Temperature 55 °F 66 °F 50 °F (1966)
Degree Days  
Heating Degree Days 0 0  
Month to date heating degree days 0  
Since 1 July heating degree days 0  
Cooling Degree Days 6 8  
Month to date cooling degree days 151  
Year to date cooling degree days 1486  
Growing Degree Days 20 (Base 50)    
Moisture  
Dew Point 62 °F    
Average Humidity 79    
Maximum Humidity 100    
Minimum Humidity 43    
Precipitation  
Precipitation 0.00 in 0.16 in 3.79 in (2002)
Month to date precipitation 2.68  
Year to date precipitation 34.62  
Snow  
Snow 0.00 in 0.00 in 0.00 in (2002)
Month to date snowfall 0.0  
Since 1 July snowfall 0.0  
Snow Depth -    
Sea Level Pressure  
Sea Level Pressure 30.11 in    
Wind  
Wind Speed 2 mph (NNW)    
Max Wind Speed 14 mph    
Max Gust Speed 23 mph    
Visibility 10 miles    
Events Rain    
T = Trace of Precipitation, MM = Missing Value Source: NWS Daily Summary

Daily Weather History Graph

Daily Weather History Graph

Search for Another Location

Airport or City:

Trip Planner

Search our weather history database for the weather conditions in past years. The results will help you decide how hot, cold, wet, or windy it might be!

Date:

Astronomy

Sep. 16, 2013 Rise Set
Actual Time 6:48 AM EDT 7:10 PM EDT
Civil Twilight 6:22 AM EDT 7:36 PM EDT
Nautical Twilight 5:52 AM EDT 8:07 PM EDT
Astronomical Twilight 5:21 AM EDT 8:37 PM EDT
Moon 5:15 PM EDT (9/16) 3:36 AM EDT (9/16)
Length of Visible Light 13h 14m
Length of Day
12h 22m
Waxing Gibbous, 90% of the Moon is Illuminated
Sep 16
Waxing Gibbous
Sep 19
Full
Sep 26
Last Quarter
Oct 4
New
Oct 11
First Quarter

Hourly Weather History & Observations

Time (EDT) Temp. Heat Index Dew Point Humidity Pressure Visibility Wind Dir Wind Speed Gust Speed Precip Events Conditions
12:15 AM 59.0 °F - 57.2 °F 94% 30.15 in 10.0 mi Calm Calm - N/A   Clear
12:35 AM 57.2 °F - 55.4 °F 94% 30.16 in 10.0 mi Calm Calm - N/A   Clear
12:55 AM 57.2 °F - 55.4 °F 94% 30.16 in 10.0 mi Calm Calm - N/A   Clear
1:15 AM 59.0 °F - 55.4 °F 88% 30.15 in 10.0 mi Calm Calm - N/A   Clear
1:35 AM 57.2 °F - 55.4 °F 94% 30.15 in 10.0 mi Calm Calm - N/A   Scattered Clouds
1:55 AM 57.2 °F - 55.4 °F 94% 30.15 in 10.0 mi Calm Calm - N/A   Scattered Clouds
2:15 AM 57.2 °F - 55.4 °F 94% 30.15 in 10.0 mi Calm Calm - N/A   Scattered Clouds
2:35 AM 57.2 °F - 55.4 °F 94% 30.14 in 10.0 mi Calm Calm - N/A   Scattered Clouds
2:55 AM 57.2 °F - 55.4 °F 94% 30.14 in 10.0 mi Calm Calm - N/A   Scattered Clouds
3:15 AM 57.2 °F - 53.6 °F 88% 30.13 in 10.0 mi Calm Calm - N/A   Scattered Clouds
3:35 AM 57.2 °F - 55.4 °F 94% 30.13 in 10.0 mi Calm Calm - N/A   Scattered Clouds
3:55 AM 55.4 °F - 55.4 °F 100% 30.12 in 10.0 mi Calm Calm - N/A   Scattered Clouds
4:15 AM 57.2 °F - 55.4 °F 94% 30.12 in 10.0 mi Calm Calm - N/A   Scattered Clouds
4:35 AM 57.2 °F - 57.2 °F 100% 30.12 in 10.0 mi Calm Calm - N/A   Mostly Cloudy
4:55 AM 57.2 °F - 55.4 °F 94% 30.12 in 10.0 mi Calm Calm - N/A   Scattered Clouds
5:15 AM 57.2 °F - 55.4 °F 94% 30.12 in 10.0 mi Calm Calm - N/A   Scattered Clouds
5:35 AM 57.2 °F - 55.4 °F 94% 30.12 in 7.0 mi Calm Calm - N/A   Mostly Cloudy
5:55 AM 57.2 °F - 55.4 °F 94% 30.12 in 10.0 mi Calm Calm - N/A   Scattered Clouds
6:15 AM 59.0 °F - 57.2 °F 94% 30.12 in 10.0 mi Calm Calm - N/A   Clear
6:35 AM 59.0 °F - 57.2 °F 94% 30.12 in 10.0 mi Calm Calm - N/A   Scattered Clouds
6:55 AM 60.8 °F - 60.8 °F 100% 30.12 in 10.0 mi Calm Calm - N/A   Mostly Cloudy
7:15 AM 60.8 °F - 60.8 °F 100% 30.12 in 10.0 mi Calm Calm - N/A   Scattered Clouds
7:35 AM 62.6 °F - 60.8 °F 94% 30.12 in 10.0 mi Calm Calm - N/A   Clear
7:55 AM 62.6 °F - 60.8 °F 94% 30.12 in 10.0 mi Calm Calm - N/A   Clear
8:15 AM 66.2 °F - 64.4 °F 94% 30.12 in 7.0 mi SSW 3.5 mph - N/A   Clear
8:35 AM 69.8 °F - 66.2 °F 88% 30.11 in 10.0 mi SSW 4.6 mph - N/A   Clear
8:55 AM 71.6 °F - 66.2 °F 83% 30.12 in 10.0 mi Calm Calm - N/A   Clear
9:15 AM 71.6 °F - 68.0 °F 88% 30.12 in 10.0 mi Calm Calm - N/A   Mostly Cloudy
9:35 AM 73.4 °F - 69.8 °F 88% 30.12 in 10.0 mi Calm Calm - N/A   Mostly Cloudy
9:55 AM 73.4 °F - 69.8 °F 88% 30.12 in 10.0 mi Calm Calm - N/A   Overcast
10:15 AM 73.4 °F - 69.8 °F 88% 30.12 in 10.0 mi Calm Calm - N/A   Overcast
10:35 AM 75.2 °F - 69.8 °F 83% 30.11 in 10.0 mi Calm Calm - N/A   Mostly Cloudy
10:55 AM 77.0 °F - 69.8 °F 78% 30.11 in 10.0 mi SW 8.1 mph - N/A   Mostly Cloudy
11:15 AM 78.8 °F - 69.8 °F 74% 30.11 in 10.0 mi WSW 4.6 mph - N/A   Scattered Clouds
11:35 AM 80.6 °F 83.9 °F 69.8 °F 70% 30.10 in 10.0 mi WSW 9.2 mph 17.3 mph N/A   Scattered Clouds
11:55 AM 80.6 °F 83.9 °F 69.8 °F 70% 30.10 in 10.0 mi West 6.9 mph - N/A   Scattered Clouds
12:15 PM 80.6 °F 83.2 °F 68.0 °F 65% 30.09 in 10.0 mi WSW 8.1 mph - N/A   Clear
12:35 PM 78.8 °F - 68.0 °F 69% 30.09 in 10.0 mi West 8.1 mph - N/A   Clear
12:55 PM 80.6 °F 83.9 °F 69.8 °F 70% 30.08 in 7.0 mi Calm Calm - N/A   Clear
1:15 PM 82.4 °F 84.6 °F 66.2 °F 58% 30.07 in 10.0 mi Calm Calm - N/A   Clear
1:35 PM 82.4 °F 84.6 °F 66.2 °F 58% 30.06 in 7.0 mi Calm Calm - N/A   Clear
1:55 PM 84.2 °F 85.6 °F 64.4 °F 51% 30.05 in 7.0 mi Calm Calm - N/A   Clear
2:15 PM 86.0 °F 86.6 °F 62.6 °F 45% 30.05 in 10.0 mi WNW 6.9 mph - N/A   Scattered Clouds
2:35 PM 86.0 °F 86.1 °F 60.8 °F 43% 30.04 in 10.0 mi NW 8.1 mph - N/A   Scattered Clouds
2:55 PM 86.0 °F 86.6 °F 62.6 °F 45% 30.04 in 10.0 mi WNW 6.9 mph - N/A   Scattered Clouds
3:15 PM 84.2 °F 85.0 °F 62.6 °F 48% 30.04 in 10.0 mi NNW 6.9 mph - N/A   Scattered Clouds
3:35 PM 84.2 °F 84.4 °F 60.8 °F 45% 30.03 in 10.0 mi NW 9.2 mph - N/A   Scattered Clouds
3:55 PM 82.4 °F 83.9 °F 64.4 °F 54% 30.04 in 10.0 mi NNW 9.2 mph 16.1 mph N/A   Mostly Cloudy
4:15 PM 75.2 °F - 66.2 °F 73% 30.05 in 10.0 mi North 13.8 mph 23.0 mph N/A   Overcast
4:35 PM 73.4 °F - 66.2 °F 78% 30.06 in 10.0 mi North 11.5 mph 19.6 mph N/A Rain Light Rain
4:55 PM 73.4 °F - 66.2 °F 78% 30.07 in 5.0 mi North 6.9 mph - N/A   Haze
5:15 PM 73.4 °F - 64.4 °F 73% 30.07 in 7.0 mi North 9.2 mph 18.4 mph N/A   Scattered Clouds
5:35 PM 73.4 °F - 64.4 °F 73% 30.08 in 7.0 mi North 5.8 mph - N/A   Scattered Clouds
5:55 PM 71.6 °F - 64.4 °F 78% 30.09 in 10.0 mi North 6.9 mph - N/A Rain Light Rain
6:15 PM 71.6 °F - 64.4 °F 78% 30.09 in 10.0 mi North 4.6 mph - N/A   Scattered Clouds
6:35 PM 71.6 °F - 64.4 °F 78% 30.09 in 7.0 mi North 5.8 mph - N/A   Scattered Clouds
6:55 PM 71.6 °F - 64.4 °F 78% 30.10 in 7.0 mi North 4.6 mph - N/A   Scattered Clouds
7:15 PM 71.6 °F - 62.6 °F 73% 30.11 in 10.0 mi North 3.5 mph - N/A   Mostly Cloudy
7:35 PM 71.6 °F - 62.6 °F 73% 30.11 in 10.0 mi North 5.8 mph - N/A   Mostly Cloudy
7:55 PM 71.6 °F - 62.6 °F 73% 30.12 in 10.0 mi North 3.5 mph - N/A   Mostly Cloudy
8:15 PM 71.6 °F - 62.6 °F 73% 30.13 in 10.0 mi North 5.8 mph - N/A   Scattered Clouds
8:35 PM 71.6 °F - 62.6 °F 73% 30.14 in 10.0 mi NNW 8.1 mph - N/A   Scattered Clouds
8:55 PM 69.8 °F - 60.8 °F 73% 30.15 in 10.0 mi North 5.8 mph - N/A   Scattered Clouds
9:15 PM 69.8 °F - 60.8 °F 73% 30.15 in 10.0 mi North 5.8 mph - N/A   Clear
9:35 PM 69.8 °F - 60.8 °F 73% 30.16 in 10.0 mi Calm Calm - N/A   Mostly Cloudy
9:55 PM 69.8 °F - 60.8 °F 73% 30.17 in 10.0 mi North 4.6 mph - N/A   Mostly Cloudy
10:15 PM 69.8 °F - 60.8 °F 73% 30.17 in 10.0 mi North 4.6 mph - N/A   Mostly Cloudy
10:35 PM 69.8 °F - 60.8 °F 73% 30.18 in 10.0 mi North 3.5 mph - N/A   Mostly Cloudy
10:55 PM 69.8 °F - 60.8 °F 73% 30.18 in 10.0 mi NNE 5.8 mph - N/A   Overcast
11:15 PM 69.8 °F - 60.8 °F 73% 30.18 in 10.0 mi NNE 4.6 mph - N/A   Overcast
11:35 PM 68.0 °F - 60.8 °F 78% 30.18 in 10.0 mi North 5.8 mph - N/A   Mostly Cloudy
11:55 PM 68.0 °F - 59.0 °F 73% 30.19 in 10.0 mi NNE 4.6 mph - N/A   Scattered Clouds